Location: Boussac
(44.2782°N, 2.3665°E)
Time: 08:18:37
(UTC+00:00)

Okean-O - Pass Details

Date: 15 May 2026
Orbit: 627 x 629 km, 97.9° (Epoch: 5 June)

Event Time Altitude Azimuth Distance (km) Brightness Sun altitude
Exits shadow 20:14:53 13° 142° (SE) 1,781 4.3 -10.4°
Maximum altitude 20:18:29 47° 72° (ENE) 837 3.0 -10.8°
Drops below altitude 10° 20:22:42 10° 358° (N) 2,015 5.8 -11.4°
Sets 20:24:57 0° 353° (N) 2,926 6.8 -11.7°
